Location: Sungai Bunut
(2.6333°N, 113.7333°E)
Time: 19:30:21
(UTC+00:00)

Cosmos 1470 - Pass Details

Date: 16 October 2021
Orbit: 519 x 541 km, 82.5° (Epoch: 07 December)

Event Time Altitude Azimuth Distance (km) Brightness Sun altitude
Rises 21:40:49 0° 349° (N) 2,642 6.1 -7.7°
Reaches altitude 10° 21:42:59 10° 344° (NNW) 1,753 5.1 -7.2°
Maximum altitude 21:46:44 55° 267° (W) 632 2.8 -6.3°
Drops below altitude 10° 21:50:30 10° 188° (S) 1,751 5.4 -5.4°
Sets 21:52:40 0° 184° (S) 2,639 6.4 -4.8°
